Location: Gleizolles
(44.4833°N, 6.7667°E)
Time: 16:20:25
(UTC+00:00)

Altair - Pass Details

Date: 04 July 2024
Orbit: 1502 x 1681 km, 47.2° (Epoch: 13 July)

Event Time Altitude Azimuth Distance (km) Brightness Sun altitude
Rises 19:53:54 0° 193° (SSW) 4,654 9.8 -5.6°
Reaches altitude 10° 19:57:39 10° 180° (S) 3,659 9.1 -6.1°
Maximum altitude 20:04:35 25° 130° (SE) 2,678 8.2 -7.0°
Drops below altitude 10° 20:11:30 10° 81° (E) 3,660 9.1 -7.9°
Sets 20:15:13 0° 68° (ENE) 4,655 9.8 -8.4°
